sat.trackr.live / text

‹ back to catalog

IMAGE

NORAD 26113 · 2000-017A

PAYLOAD ACTIVE UNKNOWN

§ Identity

Operator
Country
US
Launch date
2000-03-25
Launch site
AFWTR
Launch vehicle
Mass (kg)
RCS (m²)
2.40

External: N2YO · Heavens-Above · Gunter

§ Orbital elements

Epoch: 2026-09-15T09:30:27.688320Z

Period
853.75 min
Inclination
94.2859°
Eccentricity
0.7374933
Mean motion
1.68668625 rev/d
Perigee alt
1,447.5 km
Apogee alt
45,418.6 km
Semi-major
29,811.2 km
B*
0.0000e+0
RAAN
316.5027°
Arg perigee
277.7380°
Mean anomaly
11.9141°
Rev number
16,302

§ Raw data

IMAGE1 26113U 00017A   26258.39615380  .00000095  00000+0  00000+0 0  99912 26113  94.2859 316.5027 7374933 277.7380  11.9141  1.68668625163023

JSON: /api/v1/satellites/26113 · /tle

For live sub-satellite position, see the globe view (requires WebGL).

§ Visibility from observer

Set your observer location to see the next 7 days of passes ≥ 10°. The values pass through the URL so the page stays shareable.

No JS? Fill the form by hand. The geolocation button needs JavaScript.

§ Radio — SatNOGS DB

ModeDescriptionDownlinkUplink
FM Mode S 2.276 GHz

1 transmitter · refreshed weekly from db.satnogs.org